Le nostre stazioni meteo in Italia

Pubblicità
Il mio iltempo24.it
Monte Cimone, Italia (16134): Temperatura & dewpoint: 04.04.2020 03:00:00 - 10.04.2020 03:00:00 (CEST)Monte Cimone, Italia (16134): velocità del vento & gusts: 04.04.2020 03:00:00 - 10.04.2020 03:00:00 (CEST)Monte Cimone, Italia (16134): direzione del vento: 04.04.2020 03:00:00 - 10.04.2020 03:00:00 (CEST)Monte Cimone, Italia (16134): ore di luce: 04.04.2020 03:00:00 - 10.04.2020 03:00:00 (CEST)
Data & Tempo tt [°C] td [°C] ff [km/h] ff [kn] fx [km/h] fx [kn] dd sd [min]
10.04.2020 03:00:00 2,2 -19,3 4 2 - - N 0
10.04.2020 02:00:00 2,0 -19,7 9 5 - - NE 0
10.04.2020 01:00:00 2,2 -17,3 9 5 - - NNE 0
10.04.2020 00:00:00 1,9 -13,4 9 5 - - N 0
09.04.2020 23:00:00 2,0 -11,4 13 7 - - NNO 0
09.04.2020 22:00:00 2,2 -9,5 11 6 - - NNO 0
09.04.2020 21:00:00 2,3 -7,3 8 4 - - O 0
09.04.2020 20:00:00 2,9 -6,5 9 5 - - SSO 37
09.04.2020 19:00:00 2,7 -6,9 11 6 - - E 56
09.04.2020 18:00:00 3,1 -7,1 9 5 - - ENE 60
09.04.2020 17:00:00 3,2 -7,8 11 6 - - ENE 60
09.04.2020 16:00:00 3,9 -8,1 4 2 21 11 N 60
09.04.2020 15:00:00 3,7 -9,5 4 2 22 12 N 60
09.04.2020 14:00:00 3,0 -9,1 4 2 - - N 60
09.04.2020 13:00:00 2,1 -10,2 4 2 23 12 N 60
09.04.2020 12:00:00 1,4 -9,8 15 8 27 14 E 60
09.04.2020 11:00:00 0,6 -13,3 22 12 - - ENE 60
09.04.2020 10:00:00 - - - - - - - -
09.04.2020 09:00:00 -0,1 -14,0 26 14 - - E 60
09.04.2020 08:00:00 -0,4 -14,6 29 16 - - E 39
09.04.2020 07:00:00 -1,0 -15,1 21 11 - - E 0
09.04.2020 06:00:00 - - - - - - - -
09.04.2020 05:00:00 -0,9 -19,2 29 16 - - ESE 0
09.04.2020 04:00:00 -0,9 -17,3 31 17 - - E 0
09.04.2020 03:00:00 -0,7 -19,3 29 16 - - ENE 0
09.04.2020 02:00:00 - - - - - - - -
09.04.2020 01:00:00 0,0 -21,2 26 14 - - E 0
09.04.2020 00:00:00 - - - - - - - -
08.04.2020 23:00:00 0,6 -20,0 4 2 - - N 0
08.04.2020 22:00:00 1,0 -20,9 4 2 29 15 N 0
08.04.2020 21:00:00 1,1 -21,1 4 2 19 10 N 0
08.04.2020 20:00:00 1,1 -21,2 4 2 - - N 32
08.04.2020 19:00:00 1,2 -9,2 4 2 - - N 55
08.04.2020 18:00:00 1,7 -10,0 13 7 - - N 60
08.04.2020 17:00:00 2,1 -9,8 4 2 - - N 60
08.04.2020 16:00:00 2,5 -9,7 4 2 21 11 N 60
08.04.2020 15:00:00 2,2 -10,1 4 2 19 11 N 56
08.04.2020 14:00:00 2,0 -10,4 4 2 - - N 60
08.04.2020 13:00:00 1,3 -10,6 4 2 17 9 N 56
08.04.2020 12:00:00 0,9 -10,0 4 2 26 14 N 60
08.04.2020 11:00:00 0,2 -11,2 29 16 - - NE -
08.04.2020 10:00:00 -0,2 -11,6 39 21 49 26 NE -
08.04.2020 09:00:00 -0,6 -12,8 39 21 - - ENE 56
08.04.2020 08:00:00 - - - - - - - -
08.04.2020 07:00:00 -0,5 -11,6 50 27 - - ENE 0
08.04.2020 06:00:00 -0,6 -10,5 55 30 - - E 0
08.04.2020 05:00:00 -0,7 -10,9 55 30 - - E 0
08.04.2020 04:00:00 - - - - - - - -
08.04.2020 03:00:00 -1,1 -9,9 50 27 62 33 E 0
08.04.2020 02:00:00 -0,7 -11,0 41 22 - - E 0
08.04.2020 01:00:00 -0,5 -17,9 37 20 - - ENE 0
08.04.2020 00:00:00 - - - - - - - -
07.04.2020 23:00:00 0,3 -19,4 4 2 - - N 0
07.04.2020 22:00:00 0,2 -16,4 4 2 16 9 N 0
07.04.2020 21:00:00 0,4 -15,9 4 2 17 9 N 0
07.04.2020 20:00:00 0,3 -9,3 4 2 - - N 31
07.04.2020 19:00:00 0,7 -5,4 4 2 26 14 N 55
07.04.2020 18:00:00 1,3 -5,0 4 2 27 15 N 60
07.04.2020 17:00:00 1,8 -4,5 4 2 - - N 60
07.04.2020 16:00:00 2,2 -5,3 4 2 31 17 N 60
07.04.2020 15:00:00 2,2 -4,2 4 2 35 19 N 60
07.04.2020 14:00:00 2,0 -4,6 9 5 - - N 60
07.04.2020 13:00:00 1,5 -4,3 4 2 30 16 N 60
07.04.2020 12:00:00 1,2 -5,7 4 2 41 22 N 60
07.04.2020 11:00:00 0,5 -6,1 4 2 - - N 60
07.04.2020 10:00:00 - - - - - - - -
07.04.2020 09:00:00 0,0 -8,0 41 22 56 30 NE 60
07.04.2020 08:00:00 -0,4 -8,5 37 20 - - NE 35
07.04.2020 07:00:00 -0,8 -9,9 46 25 55 30 NE 0
07.04.2020 06:00:00 - - - - - - - -
07.04.2020 05:00:00 -1,0 -9,1 52 28 - - NE 0
07.04.2020 04:00:00 -1,1 -10,0 48 26 - - ENE 0
07.04.2020 03:00:00 -1,2 -9,3 54 29 - - ENE 0
07.04.2020 02:00:00 -1,1 -8,5 46 25 - - ENE 0
07.04.2020 01:00:00 - - - - - - - -
07.04.2020 00:00:00 -1,1 -4,7 4 2 31 17 N 0
06.04.2020 23:00:00 -0,9 -4,4 4 2 - - N 0
06.04.2020 22:00:00 -0,9 -3,5 4 2 22 12 N 0
06.04.2020 21:00:00 -0,7 -3,2 4 2 38 21 N 0
06.04.2020 20:00:00 -0,5 -2,8 4 2 - - N 28
06.04.2020 19:00:00 0,0 -2,9 9 5 - - NNE 57
06.04.2020 18:00:00 0,1 -2,9 15 8 21 12 NE 60
06.04.2020 17:00:00 0,2 -2,9 18 10 - - NE 60
06.04.2020 16:00:00 0,7 -2,5 4 2 31 17 N 60
06.04.2020 15:00:00 0,3 -3,1 22 12 33 18 NE 60
06.04.2020 14:00:00 0,2 -3,1 4 2 - - N 60
06.04.2020 13:00:00 -0,7 -3,7 28 15 39 21 NE 60
06.04.2020 12:00:00 - - - - - - - -
06.04.2020 11:00:00 -1,7 -4,4 4 2 - - N 59
06.04.2020 10:00:00 - - - - - - - -
06.04.2020 09:00:00 -2,1 -5,0 4 2 51 28 N 60
06.04.2020 08:00:00 -2,4 -5,0 4 2 - - N 34
06.04.2020 07:00:00 -2,5 -5,4 4 2 29 16 N 0
06.04.2020 06:00:00 -2,6 -5,5 4 2 24 13 N 0
06.04.2020 05:00:00 -2,6 -5,7 11 6 - - - 0
06.04.2020 04:00:00 -2,0 -6,3 4 2 34 18 N 0
06.04.2020 03:00:00 - - - - - - - -
06.04.2020 02:00:00 -2,2 -5,9 54 29 - - NE 0
06.04.2020 01:00:00 -2,3 -6,1 55 30 - - E 0
06.04.2020 00:00:00 -2,0 -6,6 57 31 - - ENE 0
05.04.2020 23:00:00 -2,2 -7,0 65 35 - - ENE 0
05.04.2020 22:00:00 - - - - - - - -
05.04.2020 21:00:00 -2,5 -6,4 61 33 74 40 NE 0
05.04.2020 20:00:00 -2,6 -7,1 41 22 - - NE 27
05.04.2020 19:00:00 -2,5 -6,2 4 2 32 17 N 58
05.04.2020 18:00:00 -2,2 -6,1 4 2 29 15 N 60
05.04.2020 17:00:00 -2,0 -5,2 4 2 - - N 60
05.04.2020 16:00:00 -1,7 -5,8 4 2 40 22 N 60
05.04.2020 15:00:00 -1,2 -4,8 4 2 27 15 N 60
05.04.2020 14:00:00 -1,8 -5,5 4 2 - - N 60
05.04.2020 13:00:00 -2,2 -5,9 16 9 49 26 NNE 60
05.04.2020 12:00:00 -3,1 -7,0 4 2 29 16 N 60
05.04.2020 11:00:00 -3,7 -6,8 37 20 - - NNE 60
05.04.2020 10:00:00 - - - - - - - -
05.04.2020 09:00:00 -4,3 -7,6 59 32 101 54 NE 60
05.04.2020 08:00:00 -4,4 -7,8 59 32 - - NNE 32
05.04.2020 07:00:00 -4,6 -8,1 61 33 91 49 NE 0
05.04.2020 06:00:00 -4,6 -8,4 61 33 91 49 NE 0
05.04.2020 05:00:00 - - - - - - - -
05.04.2020 04:00:00 -3,8 -7,5 55 30 94 51 NNE 0
05.04.2020 03:00:00 -3,7 -7,1 46 25 95 51 NNE 0
05.04.2020 02:00:00 -3,6 -7,1 59 32 - - NE 0
05.04.2020 01:00:00 -3,7 -6,7 74 40 88 47 NE 0
05.04.2020 00:00:00 - - - - - - - -
04.04.2020 23:00:00 -3,5 -6,7 67 36 - - NE 0
04.04.2020 22:00:00 -3,1 -7,3 59 32 71 38 NE 0
04.04.2020 21:00:00 -2,8 -6,3 4 2 60 33 N 0
04.04.2020 20:00:00 -2,4 -6,5 41 22 - - NE 22
04.04.2020 19:00:00 -1,6 -5,3 4 2 28 15 N 56
04.04.2020 18:00:00 -1,0 -5,8 4 2 38 21 N 60
04.04.2020 17:00:00 -0,6 -5,6 4 2 - - N 60
04.04.2020 16:00:00 -0,2 -4,7 4 2 34 18 N 59
04.04.2020 15:00:00 -0,3 -4,9 4 2 34 18 N 57
04.04.2020 14:00:00 -0,7 -5,3 4 2 - - N 60
04.04.2020 13:00:00 -1,7 -6,6 4 2 37 20 N 60
04.04.2020 12:00:00 - - - - - - - -
04.04.2020 11:00:00 -3,1 -7,1 4 2 - - N 60
04.04.2020 10:00:00 -3,4 -8,0 4 2 66 36 N 60
04.04.2020 09:00:00 - - - - - - - -
04.04.2020 08:00:00 -3,8 -9,3 4 2 - - N 30
04.04.2020 07:00:00 -4,0 -8,9 4 2 22 12 N 0
04.04.2020 06:00:00 -3,8 -8,7 4 2 24 13 N 0
04.04.2020 05:00:00 -3,7 -9,3 4 2 - - N 0
04.04.2020 04:00:00 -3,9 -10,1 46 25 - - NE 0
04.04.2020 03:00:00 - - - - - - - -

tt = Temperatura
td = dewpoint
ff = velocità del vento
fx = gusts
dd = direzione del vento
sd = ore di luce

Stazioni seguenti

WeatherPro
AMSI
MeteoEarth